Content
SEND FEEDBACK

Daily
Averages
Monthly
Summary
France

LE HAVRE, FRANCE


Home > Europe > France
Elevation: 338 feet     Latitude: 49 31N     Longitude: 000 04E

WEATHER
 
SELECT A DAY
Number of Records: 175,964;   Date Range: 3/4/97 - 7/23/14
 
SHARE

PRINT THIS DATA

[ ← Previous Day ]
WEATHER ALMANAC - APRIL 19, 2013
[ Next Day → ]
[ °C ]   °F
Weather ElementAverageHighLow
Temperature46.3 °F50 °F (3:00 pm)42.8 °F (11:30 pm)
Dewpoint42.7 °F44.6 °F (11:00 am)41 °F (4:30 am)
Humidity87.2 %93 % (1:00 am)76 % (7:00 pm)
Barometer30.33 in30.45 in (10:00 pm)30.24 in (12:30 am)
Wind Speed12.6 mph18.4 mph (1:30 am)
Wind Gust27.6 mph (10:30 am)
Weather ElementAverage
Visibility6.2 mi
Wind DirectionWNW (276.2 °)

Weather ElementTotal
Precipitation---
Heating Degree Days18.6 (Base 65)
Averaged from 47 records on April 19, 2013
WEATHER CONDITIONS BREAKOUT
WIND DIRECTION BREAKOUT
WEATHER BY HOUR - APRIL 19, 2013
[ °C ]   °F
Local TimeTemperatureDewpointHumidityBarometerVisibilityWind DirectionWind SpeedGust SpeedPrecipitationEventsConditions
12:30 AM46.4 °F42.8 °F87 %30.24 in6.2 miWSW (240°)17.3 mph
1:00 AM44.6 °F42.8 °F93 %30.24 in6.2 miWSW (240°)17.3 mph
1:30 AM44.6 °F42.8 °F93 %30.24 in6.2 miWSW (240°)18.4 mphPartly Cloudy
2:00 AM44.6 °F42.8 °F93 %30.24 in6.2 miWSW (240°)17.3 mph
2:30 AM44.6 °F42.8 °F93 %30.24 in6.2 miWSW (240°)18.4 mph
3:00 AM44.6 °F42.8 °F93 %30.24 in6.2 miWSW (240°)17.3 mph
3:30 AM44.6 °F42.8 °F93 %30.24 in6.2 miWSW (240°)17.3 mph
4:00 AM44.6 °F42.8 °F93 %30.24 in6.2 miWSW (250°)16.1 mphPartly Cloudy
4:30 AM44.6 °F41.0 °F87 %30.24 in6.2 miWSW (240°)13.8 mph
5:00 AM44.6 °F41.0 °F87 %30.24 in6.2 miWSW (240°)15.0 mph
5:30 AM44.6 °F41.0 °F87 %30.24 in6.2 miWSW (240°)15.0 mph
6:00 AM44.6 °F41.0 °F87 %30.24 in6.2 miWSW (250°)15.0 mph
6:30 AM44.6 °F41.0 °F87 %30.24 in6.2 miWSW (240°)13.8 mph
7:00 AM44.6 °F41.0 °F87 %30.24 in6.2 miWSW (250°)12.7 mphPartly Cloudy
7:30 AM44.6 °F41.0 °F87 %30.27 in6.2 miWSW (250°)13.8 mphMostly Cloudy
8:00 AM44.6 °F42.8 °F93 %30.27 in6.2 miWSW (250°)15.0 mphOvercast
8:30 AM44.6 °F42.8 °F93 %30.27 in6.2 miWSW (250°)15.0 mphOvercast
9:00 AM46.4 °F42.8 °F87 %30.27 in6.2 miWSW (250°)15.0 mphOvercast
9:30 AM46.4 °F42.8 °F87 %30.30 in6.2 miWest (260°)16.1 mphOvercast
10:00 AM46.4 °F42.8 °F87 %30.30 in6.2 miWest (260°)15.0 mphOvercast
10:30 AM46.4 °F42.8 °F87 %30.30 in6.2 miWest (270°)15.0 mph27.6 mphOvercast
11:00 AM48.2 °F44.6 °F87 %30.33 in6.2 miWest (280°)11.5 mphOvercast
11:30 AM48.2 °F42.8 °F82 %30.33 in6.2 miWNW (290°)15.0 mphOvercast
12:00 PM48.2 °F44.6 °F87 %30.33 in6.2 miWNW (290°)15.0 mphOvercast
12:30 PM48.2 °F44.6 °F87 %30.36 in6.2 miWNW (290°)12.7 mph
1:00 PM48.2 °F44.6 °F87 %30.36 in6.2 miWNW (290°)15.0 mphOvercast
1:30 PM48.2 °F44.6 °F87 %30.36 in6.2 miWNW (290°)12.7 mphOvercast
2:00 PM48.2 °F44.6 °F87 %30.36 in6.2 miWNW (290°)12.7 mphOvercast
2:30 PM48.2 °F44.6 °F87 %30.36 in6.2 miNW (310°)12.7 mph
3:00 PM50.0 °F44.6 °F82 %30.36 in6.2 miWNW (290°)10.4 mph
3:30 PM50.0 °F44.6 °F82 %30.36 in6.2 miNW (310°)11.5 mphMostly Cloudy
4:00 PM48.2 °F44.6 °F87 %30.36 in6.2 miNW (310°)10.4 mphPartly Cloudy
4:30 PM50.0 °F44.6 °F82 %30.39 in6.2 miNW (310°)10.4 mph
5:00 PM50.0 °F44.6 °F82 %30.39 in6.2 miNW (310°)9.2 mph
5:30 PM48.2 °F42.8 °F82 %30.39 in6.2 miNW (310°)9.2 mphMostly Cloudy
6:00 PM48.2 °F42.8 °F82 %30.39 in6.2 miNW (310°)9.2 mphMostly Cloudy
6:30 PM48.2 °F42.8 °F82 %30.39 in6.2 miNW (310°)9.2 mph
7:00 PM48.2 °F41.0 °F76 %30.39 in6.2 miNW (310°)10.4 mphOvercast
7:30 PM46.4 °F42.8 °F87 %30.42 in6.2 miNW (310°)9.2 mphMostly Cloudy
8:00 PM46.4 °F42.8 °F87 %30.42 in6.2 miNW (320°)6.9 mph
8:30 PM46.4 °F42.8 °F87 %30.42 in6.2 miNNW (330°)6.9 mph
9:00 PM44.6 °F41.0 °F87 %30.42 in6.2 miNNW (340°)5.8 mph
9:30 PM44.6 °F41.0 °F87 %30.42 in6.2 miNorth (350°)6.9 mph
10:00 PM44.6 °F41.0 °F87 %30.45 in6.2 miNNW (330°)8.1 mphPartly Cloudy
10:30 PM44.6 °F41.0 °F87 %30.45 in6.2 miNNW (340°)11.5 mphMostly Cloudy
11:00 PM44.6 °F41.0 °F87 %30.45 in6.2 miNorth (360°)6.9 mphPartly Cloudy
11:30 PM42.8 °F41.0 °F93 %30.45 in6.2 miNNE (20°)4.6 mph
Hourly data recorded from LFOH, located miles away from Le Havre, France







STORIES FROM OUR PARTNERS